Zurück zum Katalog

THOR 7

AktivKommunikationGEO
NORAD 40613·PAYLOAD·🇳🇴 Norway

Gestartet Apr 26, 2015 von Guiana Space Centre

Loading…

TLE

AktuellSource: Space-Track

Epoche: Sep 14, 2026, 13:47 UTC

1 40613U 15022A   26257.57492769 -.00000016  00000-0  00000-0 0  9993
2 40613   0.0125 207.7342 0002577 324.4217  27.7205  1.00271435 41712

Verfolge THOR 7 in Echtzeit mit AllMySat

Download on the App Store